GFSNW_700_spd_213.txt.gz
Wind_Speed
21 21 22 21 20 20 19 19 21 21 16 17 13 10 11 12 12 13 12 11 12 14 13 12 9 9 11 10 16 16 13 10 14 22 19 18 16 13 15 7 4 6 5 19
22 21 21 20 20 19 19 19 21 17 19 12 15 13 11 13 13 11 10 8 14 14 13 10 8 12 15 18 17 7 9 7 9 9 5 4 3 8 10 15 17 18 4 14
21 22 22 21 20 19 19 20 17 20 17 9 13 16 18 13 13 13 11 11 14 16 18 14 12 10 11 21 23 21 18 19 23 20 17 18 31 30 23 19 19 24 36 45
22 25 24 23 22 20 20 19 17 17 20 19 18 18 17 18 16 16 13 10 14 14 11 14 18 21 23 23 25 23 17 25 25 26 29 28 31 33 35 35 40 35 48 43
25 23 25 24 22 21 20 20 19 18 19 20 17 17 18 19 17 17 17 16 15 18 20 20 25 25 24 29 24 24 20 21 19 26 30 32 33 34 36 36 31 39 40 35
30 27 29 25 24 23 21 20 19 18 18 19 18 18 18 18 18 19 18 17 20 21 21 24 23 25 28 29 30 30 27 24 22 24 10 18 19 7 14 19 19 19 15 12
36 33 29 26 24 25 23 20 19 20 19 20 20 18 17 18 21 23 23 24 24 22 24 27 26 27 21 21 20 26 35 30 21 23 25 5 3 12 8 8 5 7 11 16
39 39 31 26 24 24 23 21 21 20 22 20 18 19 21 20 20 21 19 21 22 23 23 25 19 15 7 3 8 10 14 16 11 6 7 22 6 6 10 14 12 11 13 11
42 45 35 30 24 23 22 23 22 20 21 24 20 21 20 21 20 19 19 20 21 21 24 17 6 4 9 2 5 5 5 8 16 6 6 5 3 13 19 18 7 10 10 11
50 47 39 31 26 25 23 23 22 20 22 22 18 18 17 18 20 20 19 19 20 19 16 9 6 6 5 4 2 2 2 6 19 24 15 13 18 20 17 10 5 6 8 13
54 53 39 30 26 23 21 23 22 24 23 19 21 20 15 17 19 20 19 18 12 12 9 4 4 8 9 7 8 8 4 6 7 11 11 12 11 4 4 5 8 10 15 16
56 50 36 31 21 20 23 24 25 23 17 16 19 18 20 20 19 18 19 16 17 10 9 9 7 11 13 16 13 17 12 11 16 13 11 7 13 16 12 18 19 19 17 17
52 41 33 20 21 23 23 22 23 19 17 16 15 9 13 17 14 15 19 18 18 23 24 24 22 23 20 18 16 21 27 24 30 33 39 35 34 32 29 30 25 19 20 21
43 35 25 20 24 23 19 21 18 17 15 15 17 8 10 19 21 24 27 22 23 22 24 24 23 26 19 19 21 33 35 33 28 29 22 27 42 43 44 43 38 37 36 33
32 26 20 21 22 19 20 17 16 15 11 10 12 21 21 19 18 16 18 14 15 21 23 22 22 25 30 32 27 29 21 9 15 25 23 27 23 22 26 32 33 35 40 45
24 20 22 14 17 17 16 15 15 14 12 13 12 14 14 11 4 3 3 1 4 12 20 22 26 23 18 15 25 27 20 17 24 30 24 26 28 26 29 33 33 31 31 34
21 22 16 15 17 17 14 12 12 15 14 14 8 7 6 4 4 8 11 12 13 17 21 24 22 19 18 23 30 24 21 19 21 24 30 29 27 27 26 28 30 33 32 30
18 16 18 18 14 12 12 13 13 14 15 13 4 5 5 6 10 9 10 12 13 16 16 17 15 13 11 11 15 20 26 30 32 34 35 37 40 39 37 37 36 34 29 24
17 19 14 10 12 12 13 13 15 15 14 7 6 5 4 2 6 7 9 11 9 11 12 9 10 10 7 15 23 28 32 36 40 42 46 49 51 48 41 40 40 40 38 29
19 15 13 12 13 13 13 13 15 14 9 7 5 5 5 1 6 8 12 7 4 7 6 10 7 7 15 18 23 31 34 39 45 48 44 37 36 34 28 26 27 32 41 34
17 12 10 10 9 10 10 7 5 3 2 4 8 7 2 5 10 13 7 6 6 4 2 4 4 8 11 17 24 30 34 37 37 38 37 35 35 34 33 29 26 28 30 37
10 10 10 9 7 6 6 5 4 4 3 6 5 3 4 10 14 7 7 7 5 2 5 4 5 8 17 22 24 27 32 36 35 33 32 29 29 31 31 29 30 31 29 27
10 9 8 7 8 6 6 7 5 5 7 6 4 7 10 11 8 7 6 5 4 6 5 4 5 14 19 22 24 25 31 35 32 28 25 24 22 23 27 26 24 24 20 19
9 7 7 5 5 6 6 7 8 7 6 5 6 10 11 14 9 5 5 5 5 4 4 2 13 17 21 23 26 28 29 34 33 29 23 20 20 22 19 17 14 9 5 13
6 5 5 6 5 5 7 7 7 5 6 10 12 11 10 9 6 4 4 4 5 3 2 13 13 16 20 23 25 26 27 31 34 31 25 21 19 21 16 11 8 7 8 7
5 5 5 5 6 6 5 5 7 10 12 13 10 6 4 4 4 5 5 4 3 5 13 14 16 18 20 21 22 24 25 27 30 32 29 25 23 22 20 16 9 5 2 1
4 5 6 6 5 6 8 10 11 12 11 8 5 3 4 3 5 5 6 7 10 11 11 17 20 20 18 19 20 21 21 23 25 26 28 28 24 20 17 14 13 10 6 3

GFSNW_700_spd_216.txt.gz
Wind_Speed
21 18 18 18 16 16 16 16 16 16 16 16 11 8 9 8 8 10 11 13 14 13 11 12 10 10 9 11 16 18 19 11 12 24 19 16 15 12 12 8 4 8 7 17
23 19 16 18 18 17 17 16 17 13 15 9 8 11 12 14 13 9 9 10 14 14 14 8 9 12 14 15 17 8 13 7 10 10 2 2 5 8 14 16 19 24 10 16
24 14 14 17 19 19 18 17 16 17 13 12 15 14 15 11 12 14 12 13 16 15 15 14 11 14 14 16 19 23 20 16 18 20 18 22 29 28 32 28 23 31 30 47
23 20 16 17 21 20 20 17 16 17 17 18 18 16 16 16 15 15 14 13 15 16 12 14 18 19 18 19 21 21 16 22 22 26 26 27 31 31 32 34 39 32 41 45
24 21 18 23 23 22 21 18 19 20 20 20 17 18 18 18 17 15 16 16 19 19 19 20 27 25 22 23 18 18 16 18 17 26 26 27 32 27 19 15 18 24 22 26
28 22 24 26 28 25 22 19 18 20 22 21 20 20 18 16 16 18 16 16 20 21 22 23 23 25 26 25 28 27 27 27 22 13 8 19 24 6 14 9 12 14 13 16
32 27 29 29 32 30 26 22 20 19 23 22 22 22 19 18 19 19 22 23 23 20 23 24 23 21 18 18 16 21 27 24 17 16 17 3 5 9 3 9 9 11 11 14
29 30 32 33 35 36 28 25 22 21 23 22 24 25 23 21 22 22 21 19 22 22 22 23 15 8 4 3 6 6 7 12 9 5 5 19 6 4 9 14 12 11 11 12
34 33 37 37 38 42 35 28 23 21 22 23 21 25 25 24 22 19 20 20 19 21 21 15 5 3 4 2 4 4 5 7 10 6 4 4 2 12 19 18 8 4 12 13
36 38 39 42 44 46 42 31 24 20 21 24 22 22 23 22 19 19 20 19 18 18 16 10 5 4 4 3 2 2 4 8 18 19 11 10 17 21 17 7 9 15 12 15
43 43 43 48 48 48 42 31 23 20 20 25 28 26 25 22 17 18 17 19 14 11 8 5 4 5 6 5 7 6 6 5 7 9 10 11 15 14 13 11 17 19 19 20
49 47 52 50 48 48 38 29 22 19 19 22 25 23 24 23 20 21 15 17 16 10 8 6 5 10 12 10 8 14 11 10 10 12 14 17 26 38 35 29 33 33 30 23
48 55 54 48 44 41 34 25 22 20 19 18 23 22 22 15 16 16 14 15 17 22 21 21 17 16 17 13 12 18 13 17 27 30 29 28 31 34 41 26 31 35 38 42
53 54 50 42 41 37 33 26 19 15 14 18 20 21 24 17 17 21 20 22 25 25 23 21 20 22 17 16 18 28 27 24 19 18 22 22 19 20 24 27 32 35 36 34
52 45 39 38 38 31 27 20 14 13 13 13 12 7 13 21 20 16 14 14 17 18 19 20 20 19 22 25 22 17 14 16 17 26 24 31 22 22 27 27 29 29 31 32
43 39 35 32 25 23 20 16 15 15 14 14 12 12 13 16 13 9 3 3 6 9 12 15 20 20 18 13 17 16 13 18 22 27 27 30 33 30 31 32 33 34 33 30
38 31 25 25 21 16 15 13 10 12 10 11 8 8 9 9 7 6 7 8 10 12 15 18 18 16 19 22 26 22 19 18 19 26 35 34 38 42 41 42 43 41 41 39
31 28 22 17 16 16 15 15 15 14 11 11 7 7 9 7 8 8 7 8 10 14 16 16 12 12 11 10 13 16 22 26 30 33 38 43 48 48 42 38 38 39 39 42
25 22 21 18 16 16 14 12 13 13 12 6 8 10 8 5 4 2 4 7 9 11 10 8 7 8 7 13 19 22 25 31 38 41 41 41 41 43 40 34 29 31 30 30
24 21 18 17 16 13 10 13 15 16 15 14 14 14 10 6 3 2 5 3 3 6 5 5 5 9 13 17 20 23 28 31 36 42 44 41 36 35 31 26 26 28 31 30
20 20 19 15 12 11 8 7 6 5 4 7 11 13 10 4 3 4 2 2 4 4 2 4 4 8 10 13 18 24 26 29 33 39 40 39 38 36 32 27 27 29 29 30
21 18 14 11 9 7 7 6 6 7 6 10 11 8 4 3 5 2 2 4 4 3 6 5 5 9 11 17 20 24 26 28 30 37 38 35 32 31 30 30 27 26 28 29
20 14 11 6 8 7 6 8 7 7 8 10 6 4 4 3 2 4 4 3 3 4 5 4 6 9 15 18 20 21 25 26 29 33 34 30 27 25 26 22 20 20 21 19
13 8 7 6 4 6 7 7 6 8 8 6 4 4 7 9 6 5 4 4 4 4 4 4 8 12 15 19 21 24 24 25 27 31 33 28 25 22 20 18 15 14 13 10
8 6 5 7 6 7 6 7 7 7 6 4 6 10 9 7 6 5 6 4 5 5 3 7 10 13 17 20 22 24 24 24 25 29 31 30 26 23 20 18 16 13 9 5
5 4 4 6 7 6 6 7 6 4 6 8 8 4 4 6 4 6 6 4 5 5 7 8 11 16 21 22 23 23 22 23 23 24 27 29 28 25 22 18 15 14 11 9
5 7 7 7 6 5 4 4 6 8 8 6 3 3 4 3 5 6 6 9 12 13 14 15 18 21 23 22 20 19 19 19 18 19 21 23 25 25 23 24 22 19 14 10

GFSNW_700_spd_219.txt.gz
Wind_Speed
22 22 20 18 15 17 15 15 15 15 13 15 10 8 8 9 10 12 14 14 15 15 12 13 11 8 8 9 14 16 16 10 10 21 16 15 16 13 10 5 3 8 7 14
15 16 16 14 13 14 14 14 14 11 12 8 11 15 14 14 14 11 10 11 15 17 15 9 9 11 13 13 14 8 12 7 10 9 2 1 2 6 7 11 16 21 9 13
19 19 17 14 11 13 15 16 13 13 13 6 18 18 16 14 15 16 16 16 17 17 17 15 12 13 12 15 16 19 21 17 16 14 17 24 28 28 25 30 19 28 29 43
20 22 18 21 15 15 17 18 14 14 15 16 17 18 18 19 18 17 16 15 15 16 13 16 16 16 16 17 17 19 18 20 20 21 24 26 30 32 31 31 33 31 43 35
23 23 21 25 21 19 18 20 20 18 20 17 16 18 20 20 18 18 18 19 18 20 20 19 24 24 23 23 18 16 15 16 16 23 26 23 26 27 25 14 15 17 16 18
25 23 22 26 22 23 23 22 23 22 22 22 20 19 18 20 21 19 16 18 22 23 23 23 22 23 24 26 28 27 27 22 15 9 9 18 18 12 9 5 5 10 9 11
25 29 30 30 26 26 25 28 28 28 26 23 21 21 21 20 22 23 24 23 24 24 24 23 23 22 20 19 15 17 21 20 13 12 14 2 4 9 1 6 7 8 5 7
25 28 28 30 28 28 27 32 33 33 33 27 24 21 22 21 24 24 26 25 21 21 20 22 13 9 6 4 6 6 6 9 7 5 3 16 3 5 7 14 15 15 13 13
32 30 35 31 33 32 33 37 39 39 37 32 24 21 23 23 23 24 23 20 18 19 18 14 5 3 5 4 4 4 6 6 8 5 3 4 5 12 16 23 19 15 13 14
37 34 34 35 34 38 41 40 40 41 41 36 30 29 24 24 22 23 22 20 18 17 16 10 6 5 6 4 3 4 5 6 15 14 9 10 20 22 23 10 11 19 23 20
42 41 40 38 40 44 41 46 45 44 41 35 31 31 28 22 18 18 18 22 18 12 10 5 5 6 6 6 7 7 7 5 7 8 7 11 13 13 19 26 34 38 39 36
48 53 46 39 45 45 47 51 48 42 35 29 26 25 26 23 21 19 20 22 18 10 8 5 5 8 11 10 7 12 9 11 8 9 9 11 26 38 32 34 36 40 41 42
48 50 48 43 49 48 48 45 38 39 37 29 27 25 24 23 22 18 14 17 19 20 18 18 16 14 15 9 11 13 13 13 21 26 25 27 22 18 19 22 28 30 30 32
45 45 44 45 51 47 43 40 40 36 26 23 23 21 20 20 18 19 18 19 21 23 22 21 20 17 13 14 14 20 21 18 17 22 23 22 21 17 26 26 30 32 32 33
41 39 42 44 46 40 37 37 33 27 22 13 10 13 11 13 16 17 18 17 17 18 17 16 14 13 15 18 18 17 10 16 18 21 23 25 21 27 33 33 35 38 41 40
32 37 43 47 40 34 35 29 25 22 17 16 14 15 17 18 18 15 12 9 8 9 11 11 13 13 13 10 11 15 17 17 21 25 25 30 33 34 40 44 45 46 48 48
44 47 44 38 35 32 28 20 17 17 14 13 9 13 18 18 16 13 10 10 11 12 13 14 14 14 16 17 21 15 13 14 16 24 30 32 35 42 43 44 43 44 44 43
40 43 41 35 30 28 23 18 12 12 13 11 8 9 11 10 10 10 11 12 11 13 15 14 13 12 12 9 7 10 16 18 22 27 29 35 40 43 45 42 37 38 34 33
37 40 29 27 25 23 19 16 15 14 14 8 9 12 10 11 11 9 8 9 11 12 12 9 7 8 7 8 11 16 19 24 30 31 33 37 40 42 41 37 33 32 30 29
37 29 28 27 22 19 16 12 13 12 17 20 17 14 12 9 8 8 6 6 7 5 6 5 6 10 12 12 13 17 23 26 31 34 34 38 41 38 33 32 31 32 30 30
31 32 27 19 18 14 10 7 7 8 6 10 16 18 16 11 10 8 5 4 5 4 3 4 4 7 10 10 15 20 23 26 28 30 33 38 41 39 34 30 30 30 29 29
26 21 17 15 14 7 7 6 7 6 6 8 13 15 14 10 7 6 5 6 5 3 6 4 4 11 10 11 16 19 22 23 25 28 30 34 35 33 31 31 28 24 24 26
19 16 15 9 9 8 6 7 5 6 7 14 15 11 8 6 4 5 6 5 4 3 5 4 6 7 10 14 16 18 22 24 24 25 27 31 31 29 27 25 22 20 22 21
19 13 10 6 3 6 7 7 7 8 14 14 11 8 4 4 5 6 4 5 4 4 5 5 4 7 8 12 17 21 22 24 24 24 24 27 29 28 25 23 21 17 13 15
11 6 4 6 5 6 7 9 10 11 12 10 7 5 8 7 6 5 6 5 4 5 5 3 5 7 11 17 21 23 23 23 22 22 21 24 27 27 25 22 20 17 14 10
6 3 4 7 8 8 8 9 9 9 7 5 6 5 4 7 5 6 6 4 5 4 7 7 10 13 17 21 24 24 23 21 20 21 19 21 23 25 27 25 21 19 17 13
3 5 6 9 9 9 8 7 6 6 7 6 5 4 5 4 5 6 5 7 8 9 13 15 17 20 26 27 22 18 18 18 17 16 16 18 19 20 21 21 24 23 22 19

GFSNW_700_spd_222.txt.gz
Wind_Speed
25 24 24 22 18 15 16 17 16 15 12 13 7 12 12 12 12 13 14 12 11 9 11 12 11 8 8 12 15 15 12 8 9 18 12 11 11 12 9 5 2 6 5 14
23 24 18 21 16 14 15 14 13 11 12 8 7 14 16 12 13 14 13 13 16 14 13 8 8 10 12 13 12 7 14 7 9 6 3 1 1 4 7 9 18 17 7 11
15 20 21 21 21 14 16 14 12 13 10 8 15 14 12 14 14 17 13 14 15 15 14 13 10 14 14 16 19 18 18 17 16 14 15 22 26 26 25 27 17 23 28 40
20 20 18 19 19 19 19 18 13 14 16 17 18 16 16 16 16 15 17 15 17 17 14 17 19 14 15 18 24 21 17 19 19 20 22 24 27 29 29 29 27 24 32 24
18 23 18 20 17 19 22 21 20 19 20 18 19 20 19 20 18 19 21 17 16 18 20 20 25 22 22 22 19 13 14 14 17 25 26 23 24 21 15 13 13 17 12 13
23 24 22 23 20 21 24 23 22 23 25 25 24 24 22 22 23 21 19 22 22 22 23 23 23 23 23 26 28 23 22 20 11 8 8 16 16 3 8 7 9 9 11 13
24 24 29 24 24 26 29 28 24 26 32 30 28 29 29 27 25 26 25 24 24 23 23 22 21 22 22 21 20 19 18 15 10 9 10 3 9 7 7 7 8 9 12 12
25 27 30 27 26 29 24 30 28 32 37 35 34 33 34 31 28 27 27 27 25 23 20 19 12 12 11 9 8 8 9 10 6 5 5 15 12 10 7 10 16 16 17 16
27 30 30 35 33 30 28 28 35 39 39 40 37 35 34 31 28 32 27 24 21 21 20 14 4 4 6 4 4 6 7 9 10 6 3 4 5 12 12 16 18 17 15 18
33 32 32 34 35 34 31 34 36 41 42 41 41 39 36 32 28 28 28 22 22 19 17 13 8 7 7 5 4 5 6 9 16 15 8 10 18 19 21 12 14 17 30 38
39 38 39 35 33 31 37 34 35 40 44 47 42 41 40 29 29 27 21 20 20 19 14 9 8 8 8 7 7 6 7 5 5 7 7 9 10 13 13 25 34 38 41 39
43 44 45 50 48 45 40 40 46 51 38 38 40 36 38 35 26 22 23 21 19 12 10 9 7 7 9 10 6 11 9 12 8 10 8 16 18 27 35 33 28 27 31 32
53 49 43 41 42 44 43 39 38 39 31 31 36 31 31 32 26 26 25 20 23 21 21 19 18 15 14 9 8 12 14 16 20 23 22 23 22 27 25 21 29 34 32 36
43 44 43 42 41 44 43 39 36 35 31 30 32 30 30 26 22 20 19 17 18 20 21 22 22 19 14 13 12 13 17 20 24 23 24 21 21 20 28 28 32 36 37 41
37 38 39 39 40 38 35 30 34 34 27 22 19 27 26 21 17 19 22 21 20 20 20 20 20 17 15 17 16 16 12 13 16 21 21 25 22 27 32 35 39 42 46 46
33 35 35 35 31 30 31 34 30 26 26 24 23 22 22 23 23 21 19 18 16 15 14 13 15 13 11 8 7 13 12 14 16 18 21 26 30 33 37 40 42 44 47 47
36 35 28 25 30 35 34 29 23 23 23 20 10 15 20 23 19 16 15 14 13 12 14 15 14 13 12 14 18 14 11 10 15 21 28 28 30 36 38 43 45 44 40 39
36 30 28 29 35 36 30 29 26 22 16 14 7 11 12 13 15 15 14 14 14 14 14 13 12 12 11 7 5 4 10 13 16 21 26 33 35 35 38 44 43 38 34 33
30 24 26 33 34 33 25 23 20 13 14 8 10 13 10 11 16 14 11 12 12 13 14 11 9 9 7 5 7 10 13 17 21 24 28 31 33 35 39 40 37 36 34 30
22 22 31 34 30 27 24 18 15 16 20 22 21 15 14 10 12 11 7 7 9 6 7 6 7 12 13 11 10 11 16 21 25 28 29 31 33 36 37 35 33 33 32 29
26 41 41 29 31 23 16 9 8 9 8 14 24 24 17 15 11 11 8 5 5 3 4 5 4 7 8 7 8 12 17 20 24 27 30 32 35 39 37 32 29 27 26 27
33 36 30 23 17 10 8 7 7 8 9 8 13 18 18 15 12 10 6 7 4 3 4 4 4 10 9 7 10 13 16 19 23 26 27 28 30 33 34 32 29 27 26 23
30 22 19 9 10 8 7 8 6 7 7 8 14 15 15 12 9 7 5 5 5 3 5 4 7 7 6 8 9 13 17 21 24 25 25 25 26 28 30 29 27 26 24 22
23 15 11 8 5 6 7 8 7 6 8 14 15 11 7 7 6 5 4 5 4 4 4 5 6 6 6 7 12 17 21 24 24 24 23 22 22 24 27 28 27 25 23 21
12 7 5 7 6 6 6 8 6 9 13 14 11 9 7 6 5 5 5 4 4 4 5 6 7 7 8 13 17 22 24 24 23 22 21 20 19 20 24 26 25 23 21 18
6 5 7 9 9 8 10 12 12 12 11 10 8 6 5 7 5 5 6 3 5 4 8 10 8 10 14 18 24 26 23 18 19 19 18 18 18 18 20 23 24 23 21 21
8 9 11 10 11 11 10 10 11 10 8 8 6 5 5 4 4 5 5 5 6 7 8 12 15 17 20 23 22 20 15 15 15 15 14 15 18 19 19 17 18 21 23 22

GFSNW_700_spd_228.txt.gz
Wind_Speed
17 18 22 23 23 18 17 19 14 10 11 8 6 7 8 8 9 11 10 12 12 13 15 13 10 7 10 15 16 14 14 9 9 16 18 18 12 13 11 7 5 7 3 11
20 23 23 23 23 16 21 19 13 10 12 7 9 9 8 8 10 11 11 11 13 14 15 9 10 13 13 16 16 9 12 7 8 5 6 7 8 10 12 15 13 14 8 5
26 26 24 23 20 17 16 18 11 13 10 8 13 11 9 9 11 11 13 15 15 13 16 13 11 19 15 17 20 18 18 18 16 18 16 18 16 17 17 17 17 21 26 29
28 26 25 21 16 17 18 16 15 14 15 15 15 14 13 13 14 13 18 15 16 17 16 21 14 16 21 25 25 24 22 24 21 27 26 27 29 28 24 23 25 22 19 18
26 25 28 23 23 23 22 20 16 20 19 18 18 19 17 16 18 21 23 21 23 23 22 21 25 25 26 24 21 18 18 16 20 29 27 28 31 27 28 28 27 28 28 24
33 27 27 27 22 26 23 23 23 23 23 19 23 21 17 20 28 25 26 26 26 26 25 24 26 28 29 27 28 25 24 23 16 10 12 15 19 12 13 14 14 16 14 17
27 28 29 28 26 22 24 24 23 23 26 25 25 25 25 19 27 30 29 29 30 29 31 31 30 27 27 27 26 24 25 21 13 13 14 4 5 8 10 12 14 15 18 20
29 30 28 27 28 26 34 30 24 25 31 28 25 25 29 26 22 24 24 23 24 29 28 27 19 18 16 13 15 14 15 16 10 6 5 15 18 13 11 13 14 18 20 22
26 28 26 28 30 31 32 30 30 29 31 32 29 27 28 22 18 18 21 23 28 28 24 20 7 5 8 6 7 8 12 15 15 7 4 5 6 9 9 13 15 16 18 21
30 23 22 26 27 27 27 28 30 29 30 31 27 23 25 19 14 27 28 26 28 26 23 19 12 9 10 7 7 7 10 13 21 15 9 10 16 15 14 5 6 13 21 34
36 32 27 24 31 30 36 33 35 35 31 26 27 27 19 17 28 33 32 25 22 19 16 12 10 12 12 12 13 7 9 7 9 9 8 8 8 8 8 16 26 33 33 33
35 35 32 33 36 37 33 36 36 36 24 22 25 25 25 31 34 29 29 28 29 18 14 12 10 10 9 10 8 11 15 18 7 11 8 12 15 21 27 30 33 33 31 34
40 39 38 36 38 38 37 40 37 32 37 39 39 30 26 30 35 30 28 29 28 26 24 20 18 16 15 13 13 16 20 21 22 17 17 20 21 25 32 28 29 32 34 38
47 44 41 39 39 36 34 35 36 36 34 34 38 29 21 21 23 25 25 23 25 27 24 22 19 16 14 20 20 20 21 23 20 20 21 25 23 21 25 26 30 34 36 40
44 45 41 40 36 31 31 32 32 31 27 27 33 34 32 28 26 24 23 23 23 21 18 17 19 20 22 26 27 29 26 27 25 22 16 17 16 21 26 28 31 34 38 40
34 35 35 34 27 27 27 29 30 25 20 23 24 25 25 24 23 23 23 21 19 18 18 19 24 21 20 14 16 16 13 13 15 17 15 15 16 20 26 29 32 34 37 41
30 30 31 26 24 25 27 25 19 17 16 18 17 21 24 24 23 20 18 17 17 18 21 23 23 21 18 23 27 24 22 20 15 11 12 14 19 21 26 31 34 34 36 38
33 32 29 26 26 27 26 23 20 18 18 16 11 15 17 17 15 15 15 15 15 16 19 20 17 17 18 15 18 14 13 9 10 13 14 16 18 23 28 31 33 34 36 34
35 32 30 28 30 27 21 19 18 20 19 9 13 15 12 12 16 13 11 13 14 18 20 20 15 18 12 12 11 10 9 11 12 14 16 18 22 25 29 31 32 34 36 33
30 30 28 28 25 21 19 19 19 20 20 22 23 21 19 15 10 8 7 7 10 9 11 11 14 20 20 19 14 13 13 11 11 13 16 19 23 27 28 29 30 33 35 32
30 29 31 26 20 20 19 14 10 8 9 13 17 20 19 16 12 9 8 6 5 5 7 8 6 9 10 12 12 11 9 10 11 14 19 24 27 28 27 25 26 29 32 31
28 27 30 23 19 14 10 9 9 11 10 12 12 12 15 16 12 10 7 8 6 6 6 6 4 10 9 7 7 7 8 10 14 18 23 27 27 27 26 26 25 27 29 30
25 36 21 13 14 13 8 11 12 10 10 8 8 9 12 12 14 8 5 6 6 5 6 5 8 7 6 6 6 7 8 13 18 23 26 25 24 24 24 23 23 23 26 28
39 19 17 12 9 11 17 16 11 13 9 7 8 9 9 10 12 8 5 7 6 5 5 6 6 7 7 7 7 8 12 17 22 24 22 20 19 20 21 22 21 20 21 25
18 13 10 15 13 9 9 10 10 9 9 8 10 12 7 11 6 7 7 5 5 5 5 6 6 8 8 10 11 12 16 21 23 22 19 18 17 17 18 19 20 20 20 20
11 12 8 9 10 9 9 8 8 10 9 11 12 7 4 7 5 5 6 4 4 4 5 6 7 9 11 13 15 19 21 23 22 19 17 16 15 16 16 15 18 21 19 17
7 8 8 9 10 8 8 9 11 12 13 12 6 5 6 4 5 5 6 6 7 7 6 7 9 12 16 19 22 24 24 22 18 16 16 15 14 14 15 15 14 16 20 18